Location: Newark
(48.6461°N, 4.3644°W)
Time: 01:48:40
(UTC+00:00)

Transit 4A - Pass Details

Date: 21 January 2020
Orbit: 872 x 973 km, 66.8° (Epoch: 25 February)

Event Time Altitude Azimuth Distance (km) Brightness Sun altitude
Rises 17:57:21 0° 313° (NW) 3,470 11.3 -9.8°
Reaches altitude 10° 18:00:41 10° 294° (WNW) 2,528 10.9 -10.4°
Maximum altitude 18:04:15 17° 255° (WSW) 2,078 11.1 -10.9°
Drops below altitude 10° 18:07:50 10° 217° (SW) 2,532 11.1 -11.5°
Sets 18:11:12 0° 198° (SSW) 3,478 11.4 -12.0°
